| time (UTC) | temp C | wind direction | speed KPH | gust KPH | rain 1hr cm | rain 24hr cm | rain mn cm | humidity % | barometer mb |
| 20260503044532 | 5 | 299 | 16.1 | 0.0 | 0.00 | 0.00 | 0.00 | 70 | 1010.9 |
| 20260503044031 | 5 | 309 | 16.1 | 0.0 | 0.00 | 0.00 | 0.00 | 69 | 1011.0 |
| 20260503043531 | 5 | 331 | 16.1 | 0.0 | 0.00 | 0.00 | 0.00 | 69 | 1011.0 |
| 20260503043030 | 5 | 315 | 16.1 | 0.0 | 0.00 | 0.00 | 0.00 | 69 | 1011.1 |
| 20260503042529 | 5 | 314 | 14.5 | 0.0 | 0.00 | 0.00 | 0.00 | 69 | 1011.2 |
| 20260503042029 | 5 | 328 | 16.1 | 0.0 | 0.00 | 0.00 | 0.00 | 67 | 1011.1 |
| 20260503041528 | 5 | 340 | 16.1 | 0.0 | 0.00 | 0.00 | 0.00 | 68 | 1011.2 |
| 20260503041031 | 5 | 334 | 16.1 | 0.0 | 0.00 | 0.00 | 0.00 | 67 | 1011.3 |
| 20260503040526 | 5 | 317 | 17.7 | 0.0 | 0.00 | 0.00 | 0.00 | 69 | 1011.3 |
| 20260503040034 | 5 | 325 | 17.7 | 0.0 | 0.00 | 0.00 | 0.00 | 68 | 1011.3 |
| 20260503035526 | 5 | 323 | 17.7 | 0.0 | 0.00 | 0.00 | 0.00 | 65 | 1011.3 |
| 20260503035025 | 5 | 329 | 19.3 | 0.0 | 0.00 | 0.00 | 0.00 | 66 | 1011.3 |
| 20260503034526 | 5 | 343 | 20.9 | 0.0 | 0.00 | 0.00 | 0.00 | 67 | 1011.3 |
| 20260503034025 | 6 | 313 | 22.5 | 0.0 | 0.00 | 0.00 | 0.00 | 66 | 1011.3 |
| 20260503033525 | 6 | 324 | 24.1 | 0.0 | 0.00 | 0.00 | 0.00 | 69 | 1011.3 |
| 20260503033029 | 6 | 313 | 24.1 | 0.0 | 0.00 | 0.00 | 0.00 | 68 | 1011.3 |
| 20260503032524 | 5 | 296 | 22.5 | 0.0 | 0.00 | 0.00 | 0.00 | 67 | 1011.3 |
| 20260503032024 | 6 | 298 | 22.5 | 0.0 | 0.00 | 0.00 | 0.00 | 67 | 1011.3 |
| 20260503031524 | 6 | 279 | 22.5 | 0.0 | 0.00 | 0.00 | 0.00 | 69 | 1011.3 |
| 20260503031024 | 6 | 278 | 22.5 | 0.0 | 0.00 | 0.00 | 0.00 | 68 | 1011.2 |
| 20260503030524 | 6 | 287 | 22.5 | 0.0 | 0.00 | 0.00 | 0.00 | 67 | 1011.2 |
| 20260503030026 | 6 | 277 | 22.5 | 0.0 | 0.00 | 0.00 | 0.00 | 67 | 1011.3 |
| 20260503025523 | 6 | 273 | 22.5 | 0.0 | 0.00 | 0.00 | 0.00 | 69 | 1011.2 |
| 20260503025023 | 6 | 265 | 20.9 | 0.0 | 0.00 | 0.00 | 0.00 | 67 | 1011.2 |
| 20260503024523 | 6 | 262 | 20.9 | 0.0 | 0.00 | 0.00 | 0.00 | 67 | 1011.2 |
| 20260503024023 | 6 | 253 | 20.9 | 0.0 | 0.00 | 0.00 | 0.00 | 67 | 1011.2 |
| 20260503023522 | 6 | 257 | 20.9 | 0.0 | 0.00 | 0.00 | 0.00 | 67 | 1011.2 |
| 20260503023023 | 6 | 253 | 20.9 | 0.0 | 0.00 | 0.00 | 0.00 | 67 | 1011.2 |
| 20260503022522 | 6 | 264 | 20.9 | 0.0 | 0.00 | 0.00 | 0.00 | 68 | 1011.2 |
| 20260503022022 | 6 | 261 | 20.9 | 0.0 | 0.00 | 0.00 | 0.00 | 67 | 1011.2 |
| 20260503021522 | 6 | 251 | 19.3 | 0.0 | 0.00 | 0.00 | 0.00 | 67 | 1011.2 |
| 20260503021022 | 6 | 257 | 19.3 | 0.0 | 0.00 | 0.00 | 0.00 | 66 | 1011.3 |
| 20260503020522 | 6 | 255 | 17.7 | 0.0 | 0.00 | 0.00 | 0.00 | 66 | 1011.5 |
| 20260503020022 | 6 | 257 | 17.7 | 0.0 | 0.00 | 0.00 | 0.00 | 68 | 1011.5 |
| 20260503015521 | 6 | 267 | 19.3 | 0.0 | 0.00 | 0.00 | 0.00 | 66 | 1011.5 |
| 20260503015025 | 6 | 262 | 19.3 | 0.0 | 0.00 | 0.00 | 0.00 | 66 | 1011.5 |
| 20260503014524 | 6 | 258 | 19.3 | 0.0 | 0.00 | 0.00 | 0.00 | 65 | 1011.5 |
| 20260503014021 | 6 | 254 | 17.7 | 0.0 | 0.00 | 0.00 | 0.00 | 64 | 1011.5 |
| 20260503013521 | 6 | 259 | 19.3 | 0.0 | 0.00 | 0.00 | 0.00 | 65 | 1011.5 |
| 20260503013022 | 6 | 274 | 20.9 | 0.0 | 0.00 | 0.00 | 0.00 | 65 | 1011.5 |
| 20260503012522 | 6 | 279 | 20.9 | 0.0 | 0.00 | 0.00 | 0.00 | 67 | 1011.5 |
| 20260503012021 | 6 | 265 | 20.9 | 0.0 | 0.00 | 0.00 | 0.00 | 66 | 1011.5 |
| 20260503011523 | 6 | 272 | 19.3 | 0.0 | 0.00 | 0.00 | 0.00 | 66 | 1011.5 |
| 20260503011021 | 6 | 260 | 17.7 | 0.0 | 0.00 | 0.00 | 0.00 | 66 | 1011.6 |
| 20260503010522 | 6 | 286 | 19.3 | 0.0 | 0.00 | 0.00 | 0.00 | 64 | 1011.6 |
| 20260503010027 | 6 | 305 | 19.3 | 0.0 | 0.00 | 0.00 | 0.00 | 61 | 1011.5 |
| 20260503005520 | 6 | 277 | 20.9 | 0.0 | 0.00 | 0.00 | 0.00 | 66 | 1011.3 |
| 20260503005018 | 6 | 287 | 20.9 | 0.0 | 0.00 | 0.00 | 0.00 | 63 | 1011.4 |
| 20260503004519 | 6 | 306 | 20.9 | 0.0 | 0.00 | 0.00 | 0.00 | 65 | 1011.4 |
| 20260503004019 | 6 | 302 | 22.5 | 0.0 | 0.00 | 0.00 | 0.00 | 63 | 1011.3 |
| 20260503003516 | 6 | 284 | 22.5 | 0.0 | 0.00 | 0.00 | 0.00 | 67 | 1011.2 |
| 20260503003016 | 6 | 277 | 22.5 | 0.0 | 0.00 | 0.00 | 0.00 | 67 | 1011.1 |
| 20260503002519 | 6 | 263 | 22.5 | 0.0 | 0.00 | 0.00 | 0.00 | 68 | 1011.1 |
| 20260503002019 | 6 | 271 | 24.1 | 0.0 | 0.00 | 0.00 | 0.00 | 67 | 1011.1 |
| 20260503001516 | 6 | 266 | 22.5 | 0.0 | 0.00 | 0.00 | 0.00 | 67 | 1011.1 |
| 20260503001016 | 6 | 274 | 22.5 | 0.0 | 0.00 | 0.00 | 0.00 | 65 | 1011.0 |
| 20260503000515 | 6 | 271 | 22.5 | 0.0 | 0.00 | 0.00 | 0.00 | 65 | 1011.0 |
| 20260503000016 | 6 | 273 | 24.1 | 0.0 | 0.00 | 0.00 | 0.00 | 64 | 1011.0 |
| 20260502235515 | 7 | 260 | 25.7 | 0.0 | 0.00 | 0.00 | 0.00 | 67 | 1011.0 |
| 20260502235015 | 7 | 255 | 30.6 | 0.0 | 0.00 | 0.00 | 0.00 | 64 | 1011.0 |
| 20260502234523 | 7 | 253 | 32.2 | 0.0 | 0.00 | 0.00 | 0.00 | 66 | 1011.0 |
| 20260502234017 | 7 | 272 | 30.6 | 0.0 | 0.00 | 0.00 | 0.00 | 66 | 1010.9 |
| 20260502233515 | 7 | 274 | 27.4 | 0.0 | 0.00 | 0.00 | 0.00 | 68 | 1010.9 |
| 20260502233015 | 7 | 306 | 27.4 | 0.0 | 0.00 | 0.00 | 0.00 | 62 | 1010.9 |
| 20260502232514 | 7 | 288 | 27.4 | 0.0 | 0.00 | 0.00 | 0.00 | 63 | 1010.9 |
| 20260502232014 | 7 | 297 | 25.7 | 0.0 | 0.00 | 0.00 | 0.00 | 64 | 1010.8 |
| 20260502231514 | 7 | 284 | 24.1 | 0.0 | 0.00 | 0.00 | 0.00 | 65 | 1010.8 |
| 20260502231014 | 7 | 284 | 25.7 | 0.0 | 0.00 | 0.00 | 0.00 | 62 | 1010.8 |
| 20260502230514 | 7 | 291 | 27.4 | 0.0 | 0.00 | 0.00 | 0.00 | 62 | 1010.9 |
| 20260502230014 | 7 | 276 | 29.0 | 0.0 | 0.00 | 0.00 | 0.00 | 63 | 1010.8 |
| 20260502225517 | 7 | 287 | 32.2 | 0.0 | 0.00 | 0.00 | 0.00 | 62 | 1010.8 |
| 20260502225013 | 7 | 274 | 30.6 | 0.0 | 0.00 | 0.00 | 0.00 | 62 | 1010.8 |
| 20260502224513 | 8 | 291 | 29.0 | 0.0 | 0.00 | 0.00 | 0.00 | 59 | 1010.8 |
| 20260502224013 | 8 | 276 | 29.0 | 0.0 | 0.00 | 0.00 | 0.00 | 60 | 1010.7 |
| 20260502223515 | 8 | 266 | 29.0 | 0.0 | 0.00 | 0.00 | 0.00 | 62 | 1010.7 |
| 20260502223013 | 8 | 292 | 30.6 | 0.0 | 0.00 | 0.00 | 0.00 | 61 | 1010.7 |
| 20260502222513 | 8 | 279 | 30.6 | 0.0 | 0.00 | 0.00 | 0.00 | 61 | 1010.7 |
| 20260502222012 | 8 | 274 | 30.6 | 0.0 | 0.00 | 0.00 | 0.00 | 59 | 1010.6 |
| 20260502221512 | 8 | 282 | 30.6 | 0.0 | 0.00 | 0.00 | 0.00 | 62 | 1010.6 |
| 20260502221012 | 8 | 284 | 29.0 | 0.0 | 0.00 | 0.00 | 0.00 | 62 | 1010.5 |
| 20260502220512 | 8 | 285 | 29.0 | 0.0 | 0.00 | 0.00 | 0.00 | 61 | 1010.5 |
| 20260502220014 | 8 | 280 | 32.2 | 0.0 | 0.00 | 0.00 | 0.00 | 61 | 1010.5 |
| 20260502215511 | 8 | 280 | 30.6 | 0.0 | 0.00 | 0.00 | 0.00 | 60 | 1010.5 |
| 20260502215011 | 8 | 288 | 29.0 | 0.0 | 0.00 | 0.00 | 0.00 | 60 | 1010.5 |
| 20260502214530 | 8 | 284 | 30.6 | 0.0 | 0.00 | 0.00 | 0.00 | 59 | 1010.5 |
| 20260502214014 | 8 | 275 | 32.2 | 0.0 | 0.00 | 0.00 | 0.00 | 61 | 1010.4 |
| 20260502213511 | 8 | 288 | 32.2 | 0.0 | 0.00 | 0.00 | 0.00 | 63 | 1010.4 |
| 20260502213012 | 9 | 277 | 35.4 | 0.0 | 0.00 | 0.00 | 0.00 | 60 | 1010.4 |
| 20260502212511 | 9 | 275 | 33.8 | 0.0 | 0.00 | 0.00 | 0.00 | 60 | 1010.4 |
| 20260502212011 | 9 | 273 | 33.8 | 0.0 | 0.00 | 0.00 | 0.00 | 59 | 1010.3 |
| 20260502211517 | 9 | 284 | 33.8 | 0.0 | 0.00 | 0.00 | 0.00 | 61 | 1010.4 |
| 20260502211010 | 9 | 279 | 30.6 | 0.0 | 0.00 | 0.00 | 0.00 | 60 | 1010.3 |
| 20260502210510 | 9 | 278 | 25.7 | 0.0 | 0.00 | 0.00 | 0.00 | 56 | 1010.3 |
| 20260502210022 | 9 | 304 | 25.7 | 0.0 | 0.00 | 0.00 | 0.00 | 55 | 1010.3 |
| 20260502205514 | 9 | 286 | 27.4 | 0.0 | 0.00 | 0.00 | 0.00 | 57 | 1010.3 |
| 20260502205009 | 10 | 287 | 30.6 | 0.0 | 0.00 | 0.00 | 0.00 | 53 | 1010.3 |
| 20260502204516 | 10 | 281 | 33.8 | 0.0 | 0.00 | 0.00 | 0.00 | 60 | 1010.4 |
| 20260502204009 | 9 | 271 | 30.6 | 0.0 | 0.00 | 0.00 | 0.00 | 64 | 1010.4 |
| 20260502203508 | 9 | 273 | 30.6 | 0.0 | 0.00 | 0.00 | 0.00 | 61 | 1010.3 |
| 20260502203013 | 9 | 276 | 32.2 | 0.0 | 0.00 | 0.00 | 0.00 | 57 | 1010.3 |
| 20260502202510 | 10 | 273 | 33.8 | 0.0 | 0.00 | 0.00 | 0.00 | 58 | 1010.2 |
| 20260502202008 | 10 | 262 | 33.8 | 0.0 | 0.00 | 0.00 | 0.00 | 58 | 1010.3 |
| 20260502201509 | 10 | 277 | 32.2 | 0.0 | 0.00 | 0.00 | 0.00 | 59 | 1010.4 |
| 20260502201007 | 10 | 276 | 33.8 | 0.0 | 0.00 | 0.00 | 0.00 | 61 | 1010.6 |
| 20260502200609 | 10 | 271 | 35.4 | 0.0 | 0.00 | 0.00 | 0.00 | 60 | 1010.5 |
| 20260502200007 | 10 | 257 | 38.6 | 0.0 | 0.00 | 0.00 | 0.00 | 61 | 1010.4 |
| 20260502195506 | 10 | 279 | 38.6 | 0.0 | 0.00 | 0.00 | 0.00 | 61 | 1010.5 |
| 20260502195007 | 10 | 266 | 37.0 | 0.0 | 0.00 | 0.00 | 0.00 | 58 | 1010.5 |
| 20260502194506 | 10 | 261 | 33.8 | 0.0 | 0.00 | 0.00 | 0.00 | 57 | 1010.5 |
| 20260502194005 | 10 | 260 | 32.2 | 0.0 | 0.00 | 0.00 | 0.00 | 59 | 1010.5 |
| 20260502193505 | 10 | 265 | 32.2 | 0.0 | 0.00 | 0.00 | 0.00 | 63 | 1010.5 |
| 20260502193005 | 10 | 265 | 32.2 | 0.0 | 0.00 | 0.00 | 0.00 | 62 | 1010.5 |
| 20260502192505 | 10 | 277 | 33.8 | 0.0 | 0.00 | 0.00 | 0.00 | 60 | 1010.6 |
| 20260502192005 | 10 | 269 | 33.8 | 0.0 | 0.00 | 0.00 | 0.00 | 62 | 1010.6 |
| 20260502191514 | 10 | 257 | 32.2 | 0.0 | 0.00 | 0.00 | 0.00 | 65 | 1010.5 |
| 20260502191004 | 10 | 275 | 33.8 | 0.0 | 0.00 | 0.00 | 0.00 | 62 | 1010.5 |
| 20260502190504 | 10 | 254 | 33.8 | 0.0 | 0.00 | 0.00 | 0.00 | 61 | 1010.6 |
| 20260502190004 | 10 | 277 | 35.4 | 0.0 | 0.00 | 0.00 | 0.00 | 59 | 1010.5 |
| 20260502185506 | 11 | 261 | 33.8 | 0.0 | 0.00 | 0.00 | 0.00 | 56 | 1010.3 |
| 20260502185002 | 11 | 259 | 33.8 | 0.0 | 0.00 | 0.00 | 0.00 | 57 | 1010.3 |
| 20260502184507 | 11 | 258 | 29.0 | 0.0 | 0.00 | 0.00 | 0.00 | 60 | 1010.3 |
| 20260502184003 | 11 | 254 | 24.1 | 0.0 | 0.00 | 0.00 | 0.00 | 58 | 1010.3 |
| 20260502183503 | 11 | 252 | 24.1 | 0.0 | 0.00 | 0.00 | 0.00 | 55 | 1010.3 |
| 20260502183001 | 11 | 279 | 25.7 | 0.0 | 0.00 | 0.00 | 0.00 | 56 | 1010.3 |
| 20260502182604 | 11 | 240 | 25.7 | 0.0 | 0.00 | 0.00 | 0.00 | 61 | 1010.3 |
| 20260502182059 | 11 | 254 | 25.7 | 0.0 | 0.00 | 0.00 | 0.00 | 61 | 1010.3 |
| 20260502181559 | 11 | 251 | 27.4 | 0.0 | 0.00 | 0.00 | 0.00 | 62 | 1010.3 |
| 20260502181058 | 11 | 264 | 27.4 | 0.0 | 0.00 | 0.00 | 0.00 | 63 | 1010.3 |
| 20260502180557 | 11 | 244 | 19.3 | 0.0 | 0.00 | 0.00 | 0.00 | 66 | 1010.4 |
| 20260502180107 | 11 | 254 | 14.5 | 0.0 | 0.00 | 0.00 | 0.00 | 58 | 1010.5 |
| 20260502164051 | 11 | 260 | 25.7 | 0.0 | 0.00 | 0.00 | 0.00 | 61 | 1010.5 |
| 20260502163555 | 11 | 264 | 20.9 | 0.0 | 0.00 | 0.00 | 0.00 | 65 | 1010.4 |
| 20260502163050 | 10 | 240 | 22.5 | 0.0 | 0.00 | 0.00 | 0.00 | 62 | 1010.5 |
| 20260502162547 | 10 | 255 | 22.5 | 0.0 | 0.00 | 0.00 | 0.00 | 69 | 1010.6 |
| 20260502162045 | 10 | 257 | 16.1 | 0.0 | 0.00 | 0.00 | 0.00 | 67 | 1010.6 |
| 20260502161544 | 10 | 257 | 16.1 | 0.0 | 0.00 | 0.00 | 0.00 | 67 | 1010.5 |
| 20260502161044 | 9 | 277 | 16.1 | 0.0 | 0.00 | 0.00 | 0.00 | 66 | 1010.5 |
| 20260502160542 | 8 | 271 | 16.1 | 0.0 | 0.00 | 0.00 | 0.00 | 68 | 1010.5 |
| 20260502152038 | 8 | 279 | 16.1 | 0.0 | 0.00 | 0.00 | 0.00 | 73 | 1010.9 |
| 20260502151536 | 8 | 281 | 12.9 | 0.0 | 0.00 | 0.00 | 0.00 | 69 | 1010.9 |
| 20260502151037 | 8 | 306 | 14.5 | 0.0 | 0.00 | 0.00 | 0.00 | 70 | 1011.0 |
| 20260502150536 | 8 | 282 | 14.5 | 0.0 | 0.00 | 0.00 | 0.00 | 74 | 1011.0 |
| 20260502130535 | 7 | 276 | 22.5 | 0.0 | 0.00 | 0.00 | 0.00 | 79 | 1011.2 |
| 20260502123532 | 6 | 276 | 17.7 | 0.0 | 0.00 | 0.00 | 0.00 | 81 | 1010.8 |
| 20260502123031 | 6 | 266 | 16.1 | 0.0 | 0.00 | 0.00 | 0.00 | 82 | 1011.0 |
| 20260502122529 | 6 | 267 | 14.5 | 0.0 | 0.00 | 0.00 | 0.00 | 83 | 1010.9 |
| 20260502122031 | 6 | 261 | 14.5 | 0.0 | 0.00 | 0.00 | 0.00 | 83 | 1010.9 |
| 20260502121539 | 6 | 255 | 17.7 | 0.0 | 0.00 | 0.00 | 0.00 | 82 | 1010.8 |
| 20260502121029 | 6 | 275 | 19.3 | 0.0 | 0.00 | 0.00 | 0.00 | 82 | 1010.8 |
| 20260502120528 | 6 | 279 | 19.3 | 0.0 | 0.00 | 0.00 | 0.00 | 84 | 1010.9 |
| 20260502120128 | 6 | 264 | 19.3 | 0.0 | 0.00 | 0.00 | 0.00 | 84 | 1011.0 |
| 20260502115528 | 6 | 260 | 17.7 | 0.0 | 0.00 | 0.00 | 0.00 | 85 | 1011.0 |
| 20260502115028 | 6 | 261 | 19.3 | 0.0 | 0.00 | 0.00 | 0.00 | 85 | 1010.9 |
| 20260502114528 | 6 | 261 | 20.9 | 0.0 | 0.00 | 0.00 | 0.00 | 84 | 1011.0 |
| 20260502114026 | 6 | 263 | 22.5 | 0.0 | 0.00 | 0.00 | 0.00 | 85 | 1010.9 |
| 20260502113527 | 6 | 258 | 22.5 | 0.0 | 0.00 | 0.00 | 0.00 | 85 | 1010.8 |
| 20260502113026 | 6 | 264 | 22.5 | 0.0 | 0.00 | 0.00 | 0.00 | 85 | 1010.9 |
| 20260502112525 | 6 | 263 | 19.3 | 0.0 | 0.00 | 0.00 | 0.00 | 86 | 1010.8 |
| 20260502112024 | 6 | 261 | 19.3 | 0.0 | 0.00 | 0.00 | 0.00 | 86 | 1010.7 |
| 20260502111526 | 6 | 252 | 19.3 | 0.0 | 0.00 | 0.00 | 0.00 | 86 | 1010.6 |
| 20260502111025 | 6 | 281 | 19.3 | 0.0 | 0.00 | 0.00 | 0.00 | 87 | 1010.6 |
| 20260502110525 | 6 | 262 | 17.7 | 0.0 | 0.00 | 0.00 | 0.00 | 86 | 1010.5 |
| 20260502110031 | 6 | 244 | 16.1 | 0.0 | 0.00 | 0.00 | 0.00 | 85 | 1010.5 |
| 20260502105523 | 6 | 277 | 14.5 | 0.0 | 0.00 | 0.00 | 0.00 | 86 | 1010.5 |
| 20260502105022 | 6 | 288 | 14.5 | 0.0 | 0.00 | 0.00 | 0.00 | 86 | 1010.3 |
| 20260502104522 | 6 | 267 | 16.1 | 0.0 | 0.00 | 0.00 | 0.00 | 87 | 1010.2 |
| 20260502104021 | 5 | 294 | 17.7 | 0.0 | 0.00 | 0.00 | 0.00 | 88 | 1010.3 |
| 20260502103521 | 5 | 281 | 17.7 | 0.0 | 0.00 | 0.00 | 0.00 | 90 | 1010.3 |
| 20260502103022 | 5 | 248 | 19.3 | 0.0 | 0.00 | 0.00 | 0.00 | 89 | 1010.1 |
| 20260502102521 | 5 | 277 | 20.9 | 0.0 | 0.00 | 0.00 | 0.00 | 90 | 1010.2 |
| 20260502102021 | 5 | 243 | 24.1 | 0.0 | 0.00 | 0.00 | 0.00 | 90 | 1010.2 |
| 20260502101521 | 5 | 257 | 24.1 | 0.0 | 0.00 | 0.00 | 0.00 | 90 | 1010.0 |
| 20260502101020 | 5 | 247 | 22.5 | 0.0 | 0.00 | 0.00 | 0.00 | 90 | 1009.9 |
| 20260502100520 | 5 | 246 | 22.5 | 0.0 | 0.00 | 0.00 | 0.00 | 90 | 1009.9 |
| 20260502091512 | 5 | 244 | 4.8 | 0.0 | 0.00 | 0.00 | 0.00 | 89 | 1009.6 |
| 20260502091011 | 5 | 229 | 4.8 | 0.0 | 0.00 | 0.00 | 0.00 | 89 | 1009.6 |
| 20260502090511 | 6 | 231 | 4.8 | 0.0 | 0.00 | 0.00 | 0.00 | 89 | 1009.6 |
| 20260502071057 | 6 | 207 | 1.6 | 0.0 | 0.00 | 0.00 | 0.00 | 87 | 1009.3 |
| 20260502070557 | 6 | 207 | 1.6 | 0.0 | 0.00 | 0.00 | 0.00 | 87 | 1009.7 |
| 20260502070057 | 6 | 219 | 1.6 | 0.0 | 0.00 | 0.00 | 0.00 | 87 | 1009.8 |
| 20260502065557 | 6 | 213 | 4.8 | 0.0 | 0.00 | 0.00 | 0.00 | 87 | 1009.9 |
| 20260502065056 | 6 | 232 | 8.0 | 0.0 | 0.00 | 0.00 | 0.00 | 87 | 1009.8 |
| 20260502064601 | 6 | 250 | 9.7 | 0.0 | 0.00 | 0.00 | 0.00 | 86 | 1009.8 |
| 20260502064059 | 6 | 250 | 11.3 | 0.0 | 0.00 | 0.00 | 0.00 | 86 | 1009.8 |
| 20260502063556 | 6 | 261 | 11.3 | 0.0 | 0.00 | 0.00 | 0.00 | 86 | 1009.7 |
| 20260502063059 | 6 | 271 | 11.3 | 0.0 | 0.00 | 0.00 | 0.00 | 86 | 1009.7 |
| 20260502062556 | 6 | 278 | 9.7 | 0.0 | 0.00 | 0.00 | 0.00 | 87 | 1009.6 |
| 20260502062053 | 6 | 283 | 8.0 | 0.0 | 0.00 | 0.00 | 0.00 | 88 | 1009.6 |
| 20260502061554 | 6 | 274 | 8.0 | 0.0 | 0.00 | 0.00 | 0.00 | 88 | 1009.7 |
| 20260502061050 | 6 | 266 | 8.0 | 0.0 | 0.00 | 0.00 | 0.00 | 87 | 1009.7 |
| 20260502060549 | 6 | 275 | 6.4 | 0.0 | 0.00 | 0.00 | 0.00 | 87 | 1009.9 |
| 20260502060048 | 6 | 248 | 3.2 | 0.0 | 0.00 | 0.00 | 0.00 | 87 | 1010.0 |
| 20260502055549 | 6 | 221 | 1.6 | 0.0 | 0.00 | 0.00 | 0.00 | 87 | 1010.0 |
| 20260502055048 | 6 | 220 | 1.6 | 0.0 | 0.00 | 0.00 | 0.00 | 87 | 1010.0 |
| 20260502054546 | 6 | 223 | 1.6 | 0.0 | 0.00 | 0.00 | 0.00 | 86 | 1010.0 |
| 20260502054045 | 6 | 222 | 0.0 | 0.0 | 0.00 | 0.00 | 0.00 | 86 | 1010.2 |
| 20260502053545 | 6 | 215 | 1.6 | 0.0 | 0.00 | 0.00 | 0.00 | 86 | 1010.1 |
| 20260502053045 | 7 | 178 | 1.6 | 0.0 | 0.00 | 0.00 | 0.00 | 86 | 1010.1 |
| 20260502052544 | 7 | 180 | 0.0 | 0.0 | 0.00 | 0.00 | 0.00 | 85 | 1010.2 |
| 20260502052047 | 7 | 180 | 1.6 | 0.0 | 0.00 | 0.00 | 0.00 | 85 | 1010.2 |
| 20260502051543 | 7 | 180 | 1.6 | 0.0 | 0.00 | 0.00 | 0.00 | 84 | 1010.2 |
| 20260502051042 | 7 | 181 | 3.2 | 0.0 | 0.00 | 0.00 | 0.00 | 84 | 1010.2 |
| 20260502050541 | 7 | 182 | 3.2 | 0.0 | 0.00 | 0.00 | 0.00 | 83 | 1010.2 |
| 20260502050046 | 7 | 178 | 3.2 | 0.0 | 0.00 | 0.00 | 0.00 | 83 | 1010.2 |
| 20260502045540 | 7 | 180 | 1.6 | 0.0 | 0.00 | 0.00 | 0.00 | 82 | 1010.2 |
| 20260502045039 | 7 | 207 | 0.0 | 0.0 | 0.00 | 0.00 | 0.00 | 81 | 1010.2 |